Time,TemperatureF,DewpointF,PressureIn,WindDirection,WindDirectionDegrees,WindSpeedMPH,WindSpeedGustMPH,Humidity,HourlyPrecipIn,Conditions,Clouds,dailyrainin,SoftwareType,DateUTC
2013-07-16 00:01:00,66.6,63.2,30.12,SSE,157,1.3,1.3,89,0.00,,,0.00,WUHU21623XXSP,2013-07-16 05:01:00,
2013-07-16 00:06:00,66.4,63.0,30.12,SSE,157,0.0,1.3,89,0.00,,,0.00,WUHU21623XXSP,2013-07-16 05:06:00,
2013-07-16 00:11:00,66.0,62.6,30.11,SSE,159,0.3,5.1,89,0.00,,,0.00,WUHU21623XXSP,2013-07-16 05:11:00,
2013-07-16 00:16:00,65.8,62.5,30.12,SSE,157,0.0,5.1,89,0.00,,,0.00,WUHU21623XXSP,2013-07-16 05:16:00,
2013-07-16 00:21:00,65.5,62.2,30.12,South,180,0.0,0.2,89,0.00,,,0.00,WUHU21623XXSP,2013-07-16 05:21:00,
2013-07-16 00:26:00,65.1,61.8,30.12,NNW,337,0.0,0.2,89,0.00,,,0.00,WUHU21623XXSP,2013-07-16 05:26:00,
2013-07-16 00:31:00,65.1,61.5,30.11,South,180,0.0,2.2,88,0.00,,,0.00,WUHU21623XXSP,2013-07-16 05:31:00,
2013-07-16 00:36:00,64.9,61.3,30.11,NE,45,0.9,2.9,88,0.00,,,0.00,WUHU21623XXSP,2013-07-16 05:36:00,
2013-07-16 00:41:00,64.9,61.3,30.11,NNE,25,0.2,2.9,88,0.00,,,0.00,WUHU21623XXSP,2013-07-16 05:41:00,
2013-07-16 00:46:00,64.6,61.0,30.11,SSE,157,0.0,2.2,88,0.00,,,0.00,WUHU21623XXSP,2013-07-16 05:46:00,
2013-07-16 00:51:00,64.6,61.0,30.11,SSE,157,0.0,0.2,88,0.00,,,0.00,WUHU21623XXSP,2013-07-16 05:51:00,
2013-07-16 01:01:00,64.6,61.0,30.11,SSE,157,0.0,0.0,88,0.00,,,0.00,WUHU21623XXSP,2013-07-16 06:01:00,
2013-07-16 01:06:00,64.0,60.5,30.11,SE,135,0.0,1.8,88,0.00,,,0.00,WUHU21623XXSP,2013-07-16 06:06:00,
2013-07-16 01:11:00,64.0,60.5,30.11,SSE,157,0.0,2.0,88,0.00,,,0.00,WUHU21623XXSP,2013-07-16 06:11:00,
2013-07-16 01:16:00,63.9,60.3,30.11,SE,135,0.0,2.0,88,0.00,,,0.00,WUHU21623XXSP,2013-07-16 06:16:00,
2013-07-16 01:21:00,63.7,60.1,30.11,SE,135,0.0,0.7,88,0.00,,,0.00,WUHU21623XXSP,2013-07-16 06:21:00,
2013-07-16 01:26:00,63.5,59.9,30.11,SSE,157,0.0,1.1,88,0.00,,,0.00,WUHU21623XXSP,2013-07-16 06:26:00,
2013-07-16 01:31:00,63.3,59.8,30.11,South,180,0.0,1.6,88,0.00,,,0.00,WUHU21623XXSP,2013-07-16 06:31:00,
2013-07-16 01:36:00,63.1,60.1,30.11,SSE,157,0.0,1.8,89,0.00,,,0.00,WUHU21623XXSP,2013-07-16 06:36:00,
2013-07-16 01:41:00,63.1,59.9,30.11,SSE,157,0.0,1.8,89,0.00,,,0.00,WUHU21623XXSP,2013-07-16 06:41:00,
2013-07-16 01:46:00,63.1,59.9,30.11,SE,135,0.0,1.8,89,0.00,,,0.00,WUHU21623XXSP,2013-07-16 06:46:00,
2013-07-16 01:51:00,63.1,59.9,30.11,SE,135,0.0,0.1,89,0.00,,,0.00,WUHU21623XXSP,2013-07-16 06:51:00,
2013-07-16 01:56:00,63.1,59.9,30.11,SE,135,0.0,0.0,89,0.00,,,0.00,WUHU21623XXSP,2013-07-16 06:56:00,
2013-07-16 02:01:00,63.0,59.7,30.11,SE,135,0.0,0.0,89,0.00,,,0.00,WUHU21623XXSP,2013-07-16 07:01:00,
2013-07-16 02:06:00,63.0,59.7,30.10,SE,135,0.0,0.0,89,0.00,,,0.00,WUHU21623XXSP,2013-07-16 07:06:00,
2013-07-16 02:11:00,63.1,59.9,30.10,SE,135,0.0,0.0,89,0.00,,,0.00,WUHU21623XXSP,2013-07-16 07:11:00,
2013-07-16 02:16:00,62.8,59.6,30.10,SE,135,0.0,0.0,89,0.00,,,0.00,WUHU21623XXSP,2013-07-16 07:16:00,
2013-07-16 02:21:00,62.6,59.4,30.10,SE,135,0.0,0.0,89,0.00,,,0.00,WUHU21623XXSP,2013-07-16 07:21:00,
2013-07-16 02:26:00,62.4,59.2,30.10,SE,135,0.0,0.0,89,0.00,,,0.00,WUHU21623XXSP,2013-07-16 07:26:00,
2013-07-16 02:31:00,62.2,58.7,30.10,SE,135,0.0,0.0,88,0.00,,,0.00,WUHU21623XXSP,2013-07-16 07:31:00,
2013-07-16 02:36:00,62.4,58.9,30.10,SE,135,0.0,0.0,88,0.00,,,0.00,WUHU21623XXSP,2013-07-16 07:36:00,
2013-07-16 02:41:00,62.4,58.9,30.10,SSE,157,0.0,0.0,88,0.00,,,0.00,WUHU21623XXSP,2013-07-16 07:41:00,
2013-07-16 02:46:00,62.1,58.8,30.10,SE,135,0.0,0.0,89,0.00,,,0.00,WUHU21623XXSP,2013-07-16 07:46:00,
2013-07-16 02:51:00,62.2,59.0,30.10,SE,135,0.0,0.0,89,0.00,,,0.00,WUHU21623XXSP,2013-07-16 07:51:00,
2013-07-16 02:56:00,62.2,59.0,30.10,SSE,157,0.0,0.7,89,0.00,,,0.00,WUHU21623XXSP,2013-07-16 07:56:00,
2013-07-16 03:01:00,62.1,58.8,30.10,SSE,157,0.0,0.7,89,0.00,,,0.00,WUHU21623XXSP,2013-07-16 08:01:00,
2013-07-16 03:06:00,61.9,58.7,30.10,SSE,157,0.0,0.0,89,0.00,,,0.00,WUHU21623XXSP,2013-07-16 08:06:00,
2013-07-16 03:11:00,61.9,58.7,30.10,SSE,157,0.0,0.0,89,0.00,,,0.00,WUHU21623XXSP,2013-07-16 08:11:00,
2013-07-16 03:16:00,62.2,59.0,30.10,SSE,157,0.0,0.0,89,0.00,,,0.00,WUHU21623XXSP,2013-07-16 08:16:00,
2013-07-16 03:21:00,62.2,59.0,30.10,SSE,157,0.0,0.0,89,0.00,,,0.00,WUHU21623XXSP,2013-07-16 08:21:00,
2013-07-16 03:26:00,62.2,59.0,30.10,SSE,157,0.0,0.0,89,0.00,,,0.00,WUHU21623XXSP,2013-07-16 08:26:00,
2013-07-16 03:31:00,62.4,59.2,30.10,SSE,157,0.0,0.0,89,0.00,,,0.00,WUHU21623XXSP,2013-07-16 08:31:00,
2013-07-16 03:36:00,62.4,59.2,30.10,SSE,157,0.0,0.0,89,0.00,,,0.00,WUHU21623XXSP,2013-07-16 08:36:00,
2013-07-16 03:41:00,62.6,59.4,30.09,SSE,157,0.0,0.0,89,0.00,,,0.00,WUHU21623XXSP,2013-07-16 08:41:00,
2013-07-16 03:46:00,62.8,59.6,30.09,SSE,157,0.0,0.7,89,0.00,,,0.00,WUHU21623XXSP,2013-07-16 08:46:00,
2013-07-16 03:51:00,62.8,59.6,30.09,SSE,157,3.6,3.6,89,0.00,,,0.00,WUHU21623XXSP,2013-07-16 08:51:00,
2013-07-16 03:56:00,62.8,59.6,30.09,SSE,157,0.0,3.6,89,0.00,,,0.00,WUHU21623XXSP,2013-07-16 08:56:00,
2013-07-16 04:01:00,62.8,59.6,30.09,SSE,157,1.3,2.2,89,0.00,,,0.00,WUHU21623XXSP,2013-07-16 09:01:00,
2013-07-16 04:06:00,63.0,59.7,30.09,SSE,157,0.0,2.9,89,0.00,,,0.00,WUHU21623XXSP,2013-07-16 09:06:00,
2013-07-16 04:11:00,62.8,59.6,30.09,SSE,157,0.0,2.9,89,0.00,,,0.00,WUHU21623XXSP,2013-07-16 09:11:00,
2013-07-16 04:16:00,63.0,59.7,30.09,SSE,157,2.0,4.3,89,0.00,,,0.00,WUHU21623XXSP,2013-07-16 09:16:00,
2013-07-16 04:21:00,63.0,59.7,30.09,South,180,0.0,4.3,89,0.00,,,0.00,WUHU21623XXSP,2013-07-16 09:21:00,
2013-07-16 04:26:00,63.1,59.9,30.09,SSE,157,0.0,2.5,89,0.00,,,0.00,WUHU21623XXSP,2013-07-16 09:26:00,
2013-07-16 04:31:00,63.1,59.9,30.09,SSE,157,0.0,2.2,89,0.00,,,0.00,WUHU21623XXSP,2013-07-16 09:31:00,
2013-07-16 04:36:00,63.1,59.9,30.08,SE,135,0.0,2.0,89,0.00,,,0.00,WUHU21623XXSP,2013-07-16 09:36:00,
2013-07-16 04:41:00,63.1,59.9,30.08,SSE,157,0.0,2.0,89,0.00,,,0.00,WUHU21623XXSP,2013-07-16 09:41:00,
2013-07-16 04:46:00,63.1,59.9,30.08,SSE,157,0.0,1.1,89,0.00,,,0.00,WUHU21623XXSP,2013-07-16 09:46:00,
2013-07-16 04:51:00,63.1,59.9,30.08,SSE,157,0.0,1.1,89,0.00,,,0.00,WUHU21623XXSP,2013-07-16 09:51:00,
2013-07-16 04:56:00,63.3,60.1,30.08,SE,135,0.0,2.2,89,0.00,,,0.00,WUHU21623XXSP,2013-07-16 09:56:00,
2013-07-16 05:01:00,63.5,60.3,30.08,SSE,157,0.0,3.4,89,0.00,,,0.00,WUHU21623XXSP,2013-07-16 10:01:00,
2013-07-16 05:06:00,63.7,60.5,30.08,SSE,157,0.0,3.4,89,0.00,,,0.00,WUHU21623XXSP,2013-07-16 10:06:00,
2013-07-16 05:11:00,63.5,60.3,30.07,South,180,0.0,1.8,89,0.00,,,0.00,WUHU21623XXSP,2013-07-16 10:11:00,
2013-07-16 05:16:00,63.5,60.3,30.08,South,180,0.0,3.1,89,0.00,,,0.00,WUHU21623XXSP,2013-07-16 10:16:00,
2013-07-16 05:21:00,63.7,60.5,30.08,South,180,0.0,3.1,89,0.00,,,0.00,WUHU21623XXSP,2013-07-16 10:21:00,
2013-07-16 05:26:00,63.7,60.5,30.08,SSW,202,0.0,1.3,89,0.00,,,0.00,WUHU21623XXSP,2013-07-16 10:26:00,
2013-07-16 05:31:00,63.7,60.5,30.08,SSW,202,0.0,1.3,89,0.00,,,0.00,WUHU21623XXSP,2013-07-16 10:31:00,
2013-07-16 05:36:00,63.7,60.5,30.08,SSW,202,0.0,1.3,89,0.00,,,0.00,WUHU21623XXSP,2013-07-16 10:36:00,
2013-07-16 05:41:00,64.0,60.8,30.08,SSW,202,0.0,0.9,89,0.00,,,0.00,WUHU21623XXSP,2013-07-16 10:41:00,
2013-07-16 05:46:00,64.0,60.8,30.08,SE,135,0.0,1.3,89,0.00,,,0.00,WUHU21623XXSP,2013-07-16 10:46:00,
2013-07-16 05:51:00,64.2,61.0,30.08,SE,135,0.0,1.3,89,0.00,,,0.00,WUHU21623XXSP,2013-07-16 10:51:00,
2013-07-16 05:56:00,64.6,61.3,30.08,SSE,157,0.0,0.0,89,0.00,,,0.00,WUHU21623XXSP,2013-07-16 10:56:00,
2013-07-16 06:01:00,64.8,61.2,30.08,SSE,157,0.0,0.0,88,0.00,,,0.00,WUHU21623XXSP,2013-07-16 11:01:00,
2013-07-16 06:06:00,65.1,61.5,30.08,South,180,0.0,0.2,88,0.00,,,0.00,WUHU21623XXSP,2013-07-16 11:06:00,
2013-07-16 06:11:00,65.1,61.5,30.08,South,180,0.0,3.1,88,0.00,,,0.00,WUHU21623XXSP,2013-07-16 11:11:00,
2013-07-16 06:16:00,65.1,61.5,30.08,South,180,0.0,3.1,88,0.00,,,0.00,WUHU21623XXSP,2013-07-16 11:16:00,
2013-07-16 06:21:00,65.3,61.7,30.08,South,180,0.0,1.1,88,0.00,,,0.00,WUHU21623XXSP,2013-07-16 11:21:00,
2013-07-16 06:26:00,65.5,61.8,30.08,SSE,157,0.0,2.7,88,0.00,,,0.00,WUHU21623XXSP,2013-07-16 11:26:00,
2013-07-16 06:31:00,65.7,62.0,30.07,South,180,0.0,2.7,88,0.00,,,0.00,WUHU21623XXSP,2013-07-16 11:31:00,
2013-07-16 06:36:00,66.0,62.3,30.07,South,180,0.0,2.9,88,0.00,,,0.00,WUHU21623XXSP,2013-07-16 11:36:00,
2013-07-16 06:41:00,66.2,62.2,30.07,SSW,202,1.1,2.9,87,0.00,,,0.00,WUHU21623XXSP,2013-07-16 11:41:00,
2013-07-16 06:46:00,66.7,63.0,30.08,South,180,0.0,3.1,88,0.00,,,0.00,WUHU21623XXSP,2013-07-16 11:46:00,
2013-07-16 06:51:00,67.1,63.1,30.08,SSE,157,0.0,3.6,87,0.00,,,0.00,WUHU21623XXSP,2013-07-16 11:51:00,
2013-07-16 06:56:00,67.3,63.2,30.07,South,180,0.0,6.5,87,0.00,,,0.00,WUHU21623XXSP,2013-07-16 11:56:00,
2013-07-16 07:01:00,67.1,63.1,30.07,SSW,202,0.7,6.9,87,0.00,,,0.00,WUHU21623XXSP,2013-07-16 12:01:00,
2013-07-16 07:06:00,66.9,63.2,30.07,South,180,0.0,6.9,88,0.00,,,0.00,WUHU21623XXSP,2013-07-16 12:06:00,
2013-07-16 07:11:00,66.9,63.2,30.07,South,180,0.0,4.7,88,0.00,,,0.00,WUHU21623XXSP,2013-07-16 12:11:00,
2013-07-16 07:16:00,66.9,63.2,30.07,SSW,202,0.0,3.8,88,0.00,,,0.00,WUHU21623XXSP,2013-07-16 12:16:00,
2013-07-16 07:21:00,67.1,63.4,30.08,SW,225,0.0,3.8,88,0.00,,,0.00,WUHU21623XXSP,2013-07-16 12:21:00,
2013-07-16 07:26:00,67.1,63.4,30.07,SSW,202,0.0,2.5,88,0.00,,,0.00,WUHU21623XXSP,2013-07-16 12:26:00,
2013-07-16 07:31:00,67.3,63.6,30.07,SSW,202,1.1,1.6,88,0.00,,,0.00,WUHU21623XXSP,2013-07-16 12:31:00,
2013-07-16 07:36:00,67.6,63.9,30.07,South,180,0.0,4.5,88,0.00,,,0.00,WUHU21623XXSP,2013-07-16 12:36:00,
2013-07-16 07:41:00,67.8,64.1,30.07,SSE,157,0.0,4.5,88,0.00,,,0.00,WUHU21623XXSP,2013-07-16 12:41:00,
2013-07-16 07:46:00,68.2,64.8,30.07,SW,225,3.6,7.6,89,0.00,,,0.00,WUHU21623XXSP,2013-07-16 12:46:00,
2013-07-16 07:51:00,68.5,65.1,30.07,SW,225,1.1,7.6,89,0.00,,,0.00,WUHU21623XXSP,2013-07-16 12:51:00,
2013-07-16 07:56:00,68.7,65.3,30.08,SSW,202,0.0,6.0,89,0.00,,,0.00,WUHU21623XXSP,2013-07-16 12:56:00,
2013-07-16 08:01:00,69.1,65.3,30.07,SSE,157,0.9,3.8,88,0.00,,,0.00,WUHU21623XXSP,2013-07-16 13:01:00,
2013-07-16 08:06:00,69.4,65.7,30.07,SSW,202,4.7,8.1,88,0.00,,,0.00,WUHU21623XXSP,2013-07-16 13:06:00,
2013-07-16 08:11:00,70.0,66.2,30.07,SSE,157,2.2,8.1,88,0.00,,,0.00,WUHU21623XXSP,2013-07-16 13:11:00,
2013-07-16 08:16:00,70.2,66.2,30.07,SSW,192,3.3,6.5,87,0.00,,,0.00,WUHU21623XXSP,2013-07-16 13:16:00,
2013-07-16 08:21:00,70.3,66.3,30.07,South,180,2.2,7.2,87,0.00,,,0.00,WUHU21623XXSP,2013-07-16 13:21:00,
2013-07-16 08:26:00,70.5,66.4,30.07,SSE,157,2.7,7.6,87,0.00,,,0.00,WUHU21623XXSP,2013-07-16 13:26:00,
2013-07-16 08:31:00,71.2,66.8,30.07,WSW,247,0.0,7.6,86,0.00,,,0.00,WUHU21623XXSP,2013-07-16 13:31:00,
2013-07-16 08:36:00,71.4,66.7,30.06,SSE,157,2.7,7.6,85,0.00,,,0.00,WUHU21623XXSP,2013-07-16 13:36:00,
2013-07-16 08:41:00,72.1,67.4,30.06,SSE,157,3.4,8.3,85,0.00,,,0.00,WUHU21623XXSP,2013-07-16 13:41:00,
2013-07-16 08:46:00,72.7,67.6,30.07,South,180,8.1,8.3,84,0.00,,,0.00,WUHU21623XXSP,2013-07-16 13:46:00,
2013-07-16 08:51:00,73.0,67.9,30.07,South,180,3.6,8.1,84,0.00,,,0.00,WUHU21623XXSP,2013-07-16 13:51:00,
2013-07-16 08:56:00,73.8,68.0,30.07,SW,225,4.5,8.3,82,0.00,,,0.00,WUHU21623XXSP,2013-07-16 13:56:00,
2013-07-16 09:01:00,74.5,68.3,30.07,SW,225,6.0,12.3,81,0.00,,,0.00,WUHU21623XXSP,2013-07-16 14:01:00,
2013-07-16 09:06:00,75.0,68.9,30.06,South,180,2.0,12.3,81,0.00,,,0.00,WUHU21623XXSP,2013-07-16 14:06:00,
2013-07-16 09:11:00,75.7,68.8,30.07,SW,225,7.8,7.8,79,0.00,,,0.00,WUHU21623XXSP,2013-07-16 14:11:00,
2013-07-16 09:16:00,76.1,69.1,30.07,SW,225,0.0,7.8,79,0.00,,,0.00,WUHU21623XXSP,2013-07-16 14:16:00,
2013-07-16 09:21:00,76.5,68.7,30.07,SW,225,3.6,8.3,77,0.00,,,0.00,WUHU21623XXSP,2013-07-16 14:21:00,
2013-07-16 09:26:00,77.2,69.7,30.06,WNW,292,4.0,8.3,78,0.00,,,0.00,WUHU21623XXSP,2013-07-16 14:26:00,
2013-07-16 09:31:00,77.4,69.5,30.07,SE,135,5.1,7.4,77,0.00,,,0.00,WUHU21623XXSP,2013-07-16 14:31:00,
2013-07-16 09:36:00,77.9,69.3,30.06,SW,225,6.3,7.8,75,0.00,,,0.00,WUHU21623XXSP,2013-07-16 14:36:00,
2013-07-16 09:41:00,78.6,70.0,30.06,WSW,247,3.8,7.8,75,0.00,,,0.00,WUHU21623XXSP,2013-07-16 14:41:00,
2013-07-16 09:46:00,79.0,70.3,30.06,WSW,247,0.0,7.8,75,0.00,,,0.00,WUHU21623XXSP,2013-07-16 14:46:00,
2013-07-16 09:51:00,78.6,70.0,30.06,South,180,5.1,6.7,75,0.00,,,0.00,WUHU21623XXSP,2013-07-16 14:51:00,
2013-07-16 09:56:00,79.3,69.9,30.06,SW,225,4.0,6.5,73,0.00,,,0.00,WUHU21623XXSP,2013-07-16 14:56:00,
2013-07-16 10:01:00,80.4,71.8,30.06,WSW,247,0.2,6.5,75,0.00,,,0.00,WUHU21623XXSP,2013-07-16 15:01:00,
2013-07-16 10:06:00,80.4,70.2,30.06,SSW,202,4.5,6.9,71,0.00,,,0.00,WUHU21623XXSP,2013-07-16 15:06:00,
2013-07-16 10:11:00,79.9,70.4,30.06,SSW,202,1.8,6.9,73,0.00,,,0.00,WUHU21623XXSP,2013-07-16 15:11:00,
2013-07-16 10:16:00,79.9,70.1,30.06,West,270,0.0,8.3,72,0.00,,,0.00,WUHU21623XXSP,2013-07-16 15:16:00,
2013-07-16 10:21:00,80.4,70.2,30.06,SE,135,3.8,8.3,71,0.00,,,0.00,WUHU21623XXSP,2013-07-16 15:21:00,
2013-07-16 10:26:00,81.1,71.3,30.06,WSW,247,6.0,7.4,72,0.00,,,0.00,WUHU21623XXSP,2013-07-16 15:26:00,
2013-07-16 10:31:00,80.8,70.5,30.06,West,270,2.2,8.1,71,0.00,,,0.00,WUHU21623XXSP,2013-07-16 15:31:00,
2013-07-16 10:36:00,82.0,70.4,30.06,SSE,157,4.0,8.1,68,0.00,,,0.00,WUHU21623XXSP,2013-07-16 15:36:00,
2013-07-16 10:41:00,81.3,71.4,30.05,ENE,67,2.9,8.1,72,0.00,,,0.00,WUHU21623XXSP,2013-07-16 15:41:00,
2013-07-16 10:46:00,81.1,69.6,30.05,SW,225,2.5,9.4,68,0.00,,,0.00,WUHU21623XXSP,2013-07-16 15:46:00,
2013-07-16 10:51:00,80.8,69.9,30.05,SW,219,3.6,9.4,69,0.00,,,0.00,WUHU21623XXSP,2013-07-16 15:51:00,
2013-07-16 10:56:00,81.0,69.4,30.05,SSE,157,3.6,10.1,68,0.00,,,0.00,WUHU21623XXSP,2013-07-16 15:56:00,
2013-07-16 11:01:00,80.6,69.5,30.05,South,180,2.9,10.3,69,0.00,,,0.00,WUHU21623XXSP,2013-07-16 16:01:00,
2013-07-16 11:06:00,82.0,70.8,30.05,WSW,247,2.2,10.3,69,0.00,,,0.00,WUHU21623XXSP,2013-07-16 16:06:00,
2013-07-16 11:11:00,82.2,70.1,30.06,WSW,247,10.3,10.3,67,0.00,,,0.00,WUHU21623XXSP,2013-07-16 16:11:00,
2013-07-16 11:16:00,82.9,70.3,30.05,SSE,157,3.8,10.3,66,0.00,,,0.00,WUHU21623XXSP,2013-07-16 16:16:00,
2013-07-16 11:21:00,82.9,69.4,30.05,ESE,112,1.1,8.7,64,0.00,,,0.00,WUHU21623XXSP,2013-07-16 16:21:00,
2013-07-16 11:26:00,83.1,70.5,30.05,East,90,0.0,8.7,66,0.00,,,0.00,WUHU21623XXSP,2013-07-16 16:26:00,
2013-07-16 11:31:00,83.5,70.0,30.05,West,270,4.0,8.5,64,0.00,,,0.00,WUHU21623XXSP,2013-07-16 16:31:00,
2013-07-16 11:36:00,84.0,70.1,30.05,WSW,247,0.0,10.5,63,0.00,,,0.00,WUHU21623XXSP,2013-07-16 16:36:00,
2013-07-16 11:41:00,84.2,69.8,30.05,SSW,202,3.6,11.0,62,0.00,,,0.00,WUHU21623XXSP,2013-07-16 16:41:00,
2013-07-16 11:46:00,84.2,68.9,30.05,SSW,202,1.3,11.0,60,0.00,,,0.00,WUHU21623XXSP,2013-07-16 16:46:00,
2013-07-16 11:51:00,84.0,71.0,30.05,WSW,247,2.7,7.6,65,0.00,,,0.00,WUHU21623XXSP,2013-07-16 16:51:00,
2013-07-16 11:56:00,84.4,71.3,30.04,South,180,0.9,7.8,65,0.00,,,0.00,WUHU21623XXSP,2013-07-16 16:56:00,
2013-07-16 12:01:00,84.7,70.7,30.04,WSW,247,5.8,7.8,63,0.00,,,0.00,WUHU21623XXSP,2013-07-16 17:01:00,
2013-07-16 12:06:00,86.0,71.3,30.05,SW,214,2.9,6.7,61,0.00,,,0.00,WUHU21623XXSP,2013-07-16 17:06:00,
2013-07-16 12:11:00,85.6,69.7,30.05,SSW,202,5.6,11.2,59,0.00,,,0.00,WUHU21623XXSP,2013-07-16 17:11:00,
2013-07-16 12:16:00,85.8,71.3,30.05,West,270,1.3,11.2,62,0.00,,,0.00,WUHU21623XXSP,2013-07-16 17:16:00,
2013-07-16 12:21:00,86.2,70.7,30.05,SW,225,3.1,10.5,60,0.00,,,0.00,WUHU21623XXSP,2013-07-16 17:21:00,
2013-07-16 12:26:00,85.3,70.3,30.05,SW,225,2.7,13.4,61,0.00,,,0.00,WUHU21623XXSP,2013-07-16 17:26:00,
2013-07-16 12:31:00,85.6,70.2,30.05,SSW,202,3.6,13.4,60,0.00,,,0.00,WUHU21623XXSP,2013-07-16 17:31:00,
2013-07-16 12:36:00,85.3,69.3,30.05,WSW,247,6.5,10.5,59,0.00,,,0.00,WUHU21623XXSP,2013-07-16 17:36:00,
2013-07-16 12:41:00,85.6,70.2,30.05,SSW,202,4.0,8.5,60,0.00,,,0.00,WUHU21623XXSP,2013-07-16 17:41:00,
2013-07-16 12:46:00,85.5,68.5,30.05,SSW,202,4.0,8.7,57,0.00,,,0.00,WUHU21623XXSP,2013-07-16 17:46:00,
2013-07-16 12:51:00,85.3,68.8,30.05,SW,225,2.2,9.8,58,0.00,,,0.00,WUHU21623XXSP,2013-07-16 17:51:00,
2013-07-16 12:56:00,85.3,68.3,30.05,SW,225,0.9,9.8,59,0.00,,,0.00,WUHU21623XXSP,2013-07-16 17:56:00,
2013-07-16 13:01:00,84.7,68.3,30.05,SW,225,8.7,10.5,58,0.00,,,0.00,WUHU21623XXSP,2013-07-16 18:01:00,
2013-07-16 13:06:00,84.7,68.3,30.05,South,180,4.9,11.0,58,0.00,,,0.00,WUHU21623XXSP,2013-07-16 18:06:00,
2013-07-16 13:11:00,85.1,68.7,30.05,WSW,247,8.1,11.0,58,0.00,,,0.00,WUHU21623XXSP,2013-07-16 18:11:00,
2013-07-16 13:16:00,84.9,68.5,30.05,WSW,247,3.6,8.1,58,0.00,,,0.00,WUHU21623XXSP,2013-07-16 18:16:00,
2013-07-16 13:21:00,84.7,68.3,30.05,SSW,202,7.6,8.7,58,0.00,,,0.00,WUHU21623XXSP,2013-07-16 18:21:00,
2013-07-16 13:26:00,85.3,69.3,30.05,SSW,202,2.5,8.7,59,0.00,,,0.00,WUHU21623XXSP,2013-07-16 18:26:00,
2013-07-16 13:31:00,85.8,68.8,30.05,West,270,3.4,7.8,57,0.00,,,0.00,WUHU21623XXSP,2013-07-16 18:31:00,
2013-07-16 13:36:00,85.3,67.8,30.05,WSW,247,4.9,8.3,56,0.00,,,0.00,WUHU21623XXSP,2013-07-16 18:36:00,
2013-07-16 13:41:00,85.6,69.2,30.04,West,270,0.9,8.3,58,0.00,,,0.00,WUHU21623XXSP,2013-07-16 18:41:00,
2013-07-16 13:46:00,85.8,69.8,30.04,West,270,2.7,7.6,59,0.00,,,0.00,WUHU21623XXSP,2013-07-16 18:46:00,
2013-07-16 13:51:00,85.3,68.3,30.04,South,180,2.7,7.6,57,0.00,,,0.00,WUHU21623XXSP,2013-07-16 18:51:00,
2013-07-16 13:56:00,85.8,68.8,30.05,WSW,247,2.2,10.1,57,0.00,,,0.00,WUHU21623XXSP,2013-07-16 18:56:00,
2013-07-16 14:01:00,87.1,69.5,30.05,WSW,247,6.7,10.1,56,0.00,,,0.00,WUHU21623XXSP,2013-07-16 19:01:00,
2013-07-16 14:06:00,86.7,68.6,30.04,WSW,247,2.5,7.6,55,0.00,,,0.00,WUHU21623XXSP,2013-07-16 19:06:00,
2013-07-16 14:11:00,86.4,68.3,30.05,South,180,6.0,8.7,55,0.00,,,0.00,WUHU21623XXSP,2013-07-16 19:11:00,
2013-07-16 14:16:00,86.5,67.9,30.04,SW,225,7.2,8.7,54,0.00,,,0.00,WUHU21623XXSP,2013-07-16 19:16:00,
2013-07-16 14:21:00,87.3,68.6,30.05,SSW,202,0.0,7.4,54,0.00,,,0.00,WUHU21623XXSP,2013-07-16 19:21:00,
2013-07-16 14:26:00,87.1,67.9,30.04,WSW,247,0.0,7.2,53,0.00,,,0.00,WUHU21623XXSP,2013-07-16 19:26:00,
2013-07-16 14:31:00,87.4,67.7,30.05,North,0,3.8,10.3,52,0.00,,,0.00,WUHU21623XXSP,2013-07-16 19:31:00,
2013-07-16 14:36:00,87.1,67.9,30.04,ESE,112,1.6,10.3,53,0.00,,,0.00,WUHU21623XXSP,2013-07-16 19:36:00,
2013-07-16 14:41:00,86.9,68.8,30.04,SSW,202,8.9,10.3,55,0.00,,,0.00,WUHU21623XXSP,2013-07-16 19:41:00,
2013-07-16 14:46:00,87.4,69.3,30.04,West,270,4.0,10.1,55,0.00,,,0.00,WUHU21623XXSP,2013-07-16 19:46:00,
2013-07-16 14:51:00,87.8,68.0,30.04,SSW,202,3.6,9.2,52,0.00,,,0.00,WUHU21623XXSP,2013-07-16 19:51:00,
2013-07-16 14:56:00,88.0,69.2,30.04,West,270,1.6,11.4,54,0.00,,,0.00,WUHU21623XXSP,2013-07-16 19:56:00,
2013-07-16 15:01:00,87.8,67.5,30.04,SSW,202,7.6,11.4,51,0.00,,,0.00,WUHU21623XXSP,2013-07-16 20:01:00,
2013-07-16 15:06:00,88.3,69.0,30.04,West,270,1.8,7.6,53,0.00,,,0.00,WUHU21623XXSP,2013-07-16 20:06:00,
2013-07-16 15:11:00,88.3,68.5,30.04,South,180,8.5,11.9,52,0.00,,,0.00,WUHU21623XXSP,2013-07-16 20:11:00,
2013-07-16 15:16:00,88.0,68.2,30.04,SSE,157,0.9,11.9,52,0.00,,,0.00,WUHU21623XXSP,2013-07-16 20:16:00,
2013-07-16 15:21:00,88.3,68.5,30.04,South,180,6.7,8.3,52,0.00,,,0.00,WUHU21623XXSP,2013-07-16 20:21:00,
2013-07-16 15:26:00,88.7,70.4,30.04,West,270,2.9,11.9,55,0.00,,,0.00,WUHU21623XXSP,2013-07-16 20:26:00,
2013-07-16 15:31:00,88.9,67.9,30.04,SW,225,0.9,11.9,50,0.00,,,0.00,WUHU21623XXSP,2013-07-16 20:31:00,
2013-07-16 15:36:00,88.3,67.9,30.04,SE,135,1.3,8.5,51,0.00,,,0.00,WUHU21623XXSP,2013-07-16 20:36:00,
2013-07-16 15:41:00,88.3,67.9,30.04,NNW,337,0.0,8.5,51,0.00,,,0.00,WUHU21623XXSP,2013-07-16 20:41:00,
2013-07-16 15:46:00,88.2,67.2,30.03,SSE,157,5.1,12.8,50,0.00,,,0.00,WUHU21623XXSP,2013-07-16 20:46:00,
2013-07-16 15:51:00,87.8,69.6,30.03,WSW,247,4.7,13.6,55,0.00,,,0.00,WUHU21623XXSP,2013-07-16 20:51:00,
2013-07-16 15:56:00,88.2,67.2,30.03,WSW,247,4.3,13.6,50,0.00,,,0.00,WUHU21623XXSP,2013-07-16 20:56:00,
2013-07-16 16:01:00,87.6,67.3,30.03,WSW,247,5.6,10.3,51,0.00,,,0.00,WUHU21623XXSP,2013-07-16 21:01:00,
2013-07-16 16:06:00,87.6,66.8,30.03,WSW,247,8.3,9.6,50,0.00,,,0.00,WUHU21623XXSP,2013-07-16 21:06:00,
2013-07-16 16:11:00,87.4,67.1,30.03,WSW,247,2.0,9.6,51,0.00,,,0.00,WUHU21623XXSP,2013-07-16 21:11:00,
2013-07-16 16:16:00,87.6,68.4,30.03,WSW,247,0.7,9.6,53,0.00,,,0.00,WUHU21623XXSP,2013-07-16 21:16:00,
2013-07-16 16:21:00,88.3,69.0,30.03,WSW,247,7.6,13.0,53,0.00,,,0.00,WUHU21623XXSP,2013-07-16 21:21:00,
2013-07-16 16:26:00,88.0,67.1,30.03,SW,225,7.2,13.0,50,0.00,,,0.00,WUHU21623XXSP,2013-07-16 21:26:00,
2013-07-16 16:31:00,87.8,66.9,30.03,WSW,247,5.8,10.5,50,0.00,,,0.00,WUHU21623XXSP,2013-07-16 21:31:00,
2013-07-16 16:36:00,88.2,67.2,30.03,WSW,247,0.0,10.5,50,0.00,,,0.00,WUHU21623XXSP,2013-07-16 21:36:00,
2013-07-16 16:41:00,88.5,68.1,30.02,WSW,247,4.0,12.1,51,0.00,,,0.00,WUHU21623XXSP,2013-07-16 21:41:00,
2013-07-16 16:46:00,88.5,66.3,30.03,WSW,247,3.6,12.1,48,0.00,,,0.00,WUHU21623XXSP,2013-07-16 21:46:00,
2013-07-16 16:51:00,88.2,67.2,30.03,WSW,247,6.7,12.1,50,0.00,,,0.00,WUHU21623XXSP,2013-07-16 21:51:00,
2013-07-16 16:56:00,88.2,66.6,30.03,WSW,247,8.9,12.1,49,0.00,,,0.00,WUHU21623XXSP,2013-07-16 21:56:00,
2013-07-16 17:01:00,87.6,66.1,30.03,WSW,247,9.6,9.6,49,0.00,,,0.00,WUHU21623XXSP,2013-07-16 22:01:00,
2013-07-16 17:06:00,88.0,67.1,30.03,WSW,247,3.4,9.6,50,0.00,,,0.00,WUHU21623XXSP,2013-07-16 22:06:00,
2013-07-16 17:11:00,87.6,65.5,30.03,WSW,247,6.5,8.7,48,0.00,,,0.00,WUHU21623XXSP,2013-07-16 22:11:00,
2013-07-16 17:16:00,88.3,66.8,30.03,West,270,5.6,8.7,49,0.00,,,0.00,WUHU21623XXSP,2013-07-16 22:16:00,
2013-07-16 17:20:00,88.3,66.1,30.03,WSW,247,8.5,9.2,48,0.00,,,0.00,WUHU21623XXSP,2013-07-16 22:20:00,
2013-07-16 17:26:00,88.0,66.4,30.03,WSW,247,3.1,9.2,49,0.00,,,0.00,WUHU21623XXSP,2013-07-16 22:26:00,
2013-07-16 17:33:00,87.6,67.3,30.03,WSW,247,5.1,15.7,51,0.00,,,0.00,WUHU21623XXSP,2013-07-16 22:33:00,
2013-07-16 17:39:00,87.6,66.8,30.03,WSW,247,2.7,8.7,50,0.00,,,0.00,WUHU21623XXSP,2013-07-16 22:39:00,
2013-07-16 17:45:00,87.4,66.6,30.03,WSW,247,2.7,8.3,50,0.00,,,0.00,WUHU21623XXSP,2013-07-16 22:45:00,
2013-07-16 17:51:00,87.1,67.3,30.03,WSW,247,1.6,8.3,52,0.00,,,0.00,WUHU21623XXSP,2013-07-16 22:51:00,
2013-07-16 17:57:00,86.9,66.6,30.03,WSW,247,7.6,8.3,51,0.00,,,0.00,WUHU21623XXSP,2013-07-16 22:57:00,
2013-07-16 18:03:00,87.1,67.3,30.02,SSW,202,6.3,10.1,52,0.00,,,0.00,WUHU21623XXSP,2013-07-16 23:03:00,
2013-07-16 18:09:00,86.2,66.5,30.02,South,180,6.9,10.1,52,0.00,,,0.00,WUHU21623XXSP,2013-07-16 23:09:00,
2013-07-16 18:14:00,85.8,66.2,30.02,South,180,4.3,8.3,52,0.00,,,0.00,WUHU21623XXSP,2013-07-16 23:14:00,
2013-07-16 18:19:00,85.8,66.7,30.02,WNW,292,3.6,8.3,53,0.00,,,0.00,WUHU21623XXSP,2013-07-16 23:19:00,
2013-07-16 18:24:00,85.8,67.2,30.02,SSW,202,6.0,8.1,54,0.00,,,0.00,WUHU21623XXSP,2013-07-16 23:24:00,
2013-07-16 18:29:00,85.8,67.2,30.02,SW,225,2.7,8.7,54,0.00,,,0.00,WUHU21623XXSP,2013-07-16 23:29:00,
2013-07-16 18:35:00,85.6,66.5,30.02,West,270,0.0,11.2,53,0.00,,,0.00,WUHU21623XXSP,2013-07-16 23:35:00,
2013-07-16 18:40:00,85.6,67.1,30.02,West,270,1.6,11.2,54,0.00,,,0.00,WUHU21623XXSP,2013-07-16 23:40:00,
2013-07-16 18:45:00,85.6,66.5,30.03,WSW,247,0.0,7.4,53,0.00,,,0.00,WUHU21623XXSP,2013-07-16 23:45:00,
2013-07-16 18:50:00,85.3,66.7,30.03,SW,225,2.9,6.5,54,0.00,,,0.00,WUHU21623XXSP,2013-07-16 23:50:00,
2013-07-16 18:55:00,84.7,67.5,30.03,SSW,202,0.0,7.2,57,0.00,,,0.00,WUHU21623XXSP,2013-07-16 23:55:00,
2013-07-16 19:00:00,84.4,67.0,30.03,South,180,2.7,8.7,56,0.00,,,0.00,WUHU21623XXSP,2013-07-17 00:00:00,
2013-07-16 19:06:00,84.7,67.3,30.03,SW,225,6.5,8.7,56,0.00,,,0.00,WUHU21623XXSP,2013-07-17 00:06:00,
2013-07-16 19:11:00,84.4,67.0,30.04,SW,225,1.6,8.5,56,0.00,,,0.00,WUHU21623XXSP,2013-07-17 00:11:00,
2013-07-16 19:16:00,84.4,67.0,30.03,SSW,202,0.4,8.3,56,0.00,,,0.00,WUHU21623XXSP,2013-07-17 00:16:00,
2013-07-16 19:21:00,84.6,67.7,30.04,SSW,202,0.0,8.3,57,0.00,,,0.00,WUHU21623XXSP,2013-07-17 00:21:00,
2013-07-16 19:26:00,84.0,67.7,30.04,West,270,1.6,8.1,58,0.00,,,0.00,WUHU21623XXSP,2013-07-17 00:26:00,
2013-07-16 19:31:00,84.0,67.2,30.04,SW,225,5.1,8.1,57,0.00,,,0.00,WUHU21623XXSP,2013-07-17 00:31:00,
2013-07-16 19:36:00,83.8,67.5,30.04,SW,225,1.1,6.7,58,0.00,,,0.00,WUHU21623XXSP,2013-07-17 00:36:00,
2013-07-16 19:41:00,83.1,67.8,30.04,SW,225,3.8,6.5,60,0.00,,,0.00,WUHU21623XXSP,2013-07-17 00:41:00,
2013-07-16 19:47:00,83.1,67.8,30.04,SSE,157,0.0,7.8,60,0.00,,,0.00,WUHU21623XXSP,2013-07-17 00:47:00,
2013-07-16 19:52:00,82.8,67.5,30.04,SW,225,0.0,5.4,60,0.00,,,0.00,WUHU21623XXSP,2013-07-17 00:52:00,
2013-07-16 19:57:00,82.6,67.3,30.05,WSW,247,3.1,8.3,60,0.00,,,0.00,WUHU21623XXSP,2013-07-17 00:57:00,
2013-07-16 20:02:00,82.2,66.9,30.04,SSW,202,3.4,8.3,60,0.00,,,0.00,WUHU21623XXSP,2013-07-17 01:02:00,
2013-07-16 20:08:00,82.2,66.9,30.05,SW,225,0.0,6.3,60,0.00,,,0.00,WUHU21623XXSP,2013-07-17 01:08:00,
2013-07-16 20:13:00,81.3,66.6,30.04,SW,225,1.3,5.1,61,0.00,,,0.00,WUHU21623XXSP,2013-07-17 01:13:00,
2013-07-16 20:18:00,81.1,66.9,30.04,SW,225,3.1,3.8,62,0.00,,,0.00,WUHU21623XXSP,2013-07-17 01:18:00,
2013-07-16 20:23:00,80.8,67.0,30.04,SW,225,2.9,4.7,63,0.00,,,0.00,WUHU21623XXSP,2013-07-17 01:23:00,
2013-07-16 20:28:00,80.4,66.7,30.05,SSW,202,1.1,4.7,63,0.00,,,0.00,WUHU21623XXSP,2013-07-17 01:28:00,
2013-07-16 20:34:00,80.1,66.8,30.05,SSW,202,1.8,6.5,64,0.00,,,0.00,WUHU21623XXSP,2013-07-17 01:34:00,
2013-07-16 20:39:00,79.5,66.7,30.05,SSW,202,1.8,6.5,65,0.00,,,0.00,WUHU21623XXSP,2013-07-17 01:39:00,
2013-07-16 20:44:00,79.3,66.5,30.05,South,180,2.9,3.1,65,0.00,,,0.00,WUHU21623XXSP,2013-07-17 01:44:00,
2013-07-16 20:49:00,79.2,66.4,30.05,SSW,202,4.0,4.0,65,0.00,,,0.00,WUHU21623XXSP,2013-07-17 01:49:00,
2013-07-16 20:54:00,79.0,66.6,30.05,South,180,2.9,4.0,66,0.00,,,0.00,WUHU21623XXSP,2013-07-17 01:54:00,
2013-07-16 21:05:00,78.8,66.5,30.06,SSE,157,0.4,6.0,66,0.00,,,0.00,WUHU21623XXSP,2013-07-17 02:05:00,
2013-07-16 21:10:00,78.6,66.3,30.06,South,180,2.2,6.0,66,0.00,,,0.00,WUHU21623XXSP,2013-07-17 02:10:00,
2013-07-16 21:15:00,78.4,66.5,30.06,SW,225,0.0,5.4,67,0.00,,,0.00,WUHU21623XXSP,2013-07-17 02:15:00,
2013-07-16 21:20:00,78.1,66.7,30.06,South,180,1.1,5.4,68,0.00,,,0.00,WUHU21623XXSP,2013-07-17 02:20:00,
2013-07-16 21:25:00,78.1,66.7,30.06,SSW,202,0.4,4.9,68,0.00,,,0.00,WUHU21623XXSP,2013-07-17 02:25:00,
2013-07-16 21:30:00,77.7,66.3,30.06,SSE,157,1.3,6.5,68,0.00,,,0.00,WUHU21623XXSP,2013-07-17 02:30:00,
2013-07-16 21:33:00,77.9,66.5,30.06,South,180,3.4,7.2,68,0.00,,,0.00,WUHU21623XXSP,2013-07-17 02:33:00,
2013-07-16 21:44:00,77.9,66.5,30.06,South,180,2.5,7.2,68,0.00,,,0.00,WUHU21623XXSP,2013-07-17 02:44:00,
2013-07-16 21:46:00,78.1,66.7,30.07,NNW,337,6.7,8.7,68,0.00,,,0.00,WUHU21623XXSP,2013-07-17 02:46:00,
2013-07-16 21:57:00,77.7,67.2,30.08,WNW,292,3.6,8.7,70,0.00,,,0.00,WUHU21623XXSP,2013-07-17 02:57:00,
2013-07-16 22:02:00,77.7,67.2,30.08,North,0,0.7,7.8,70,0.00,,,0.00,WUHU21623XXSP,2013-07-17 03:02:00,
2013-07-16 22:07:00,77.5,66.6,30.08,NW,315,6.7,7.8,69,0.00,,,0.00,WUHU21623XXSP,2013-07-17 03:07:00,
2013-07-16 22:12:00,76.8,66.4,30.07,NNW,337,0.0,6.7,70,0.00,,,0.00,WUHU21623XXSP,2013-07-17 03:12:00,
2013-07-16 22:17:00,75.4,66.5,30.07,NNW,337,0.0,2.9,74,0.00,,,0.00,WUHU21623XXSP,2013-07-17 03:17:00,
2013-07-16 22:22:00,75.0,65.8,30.07,NNW,337,0.0,0.0,73,0.00,,,0.00,WUHU21623XXSP,2013-07-17 03:22:00,
2013-07-16 22:27:00,75.0,65.8,30.07,NNW,337,0.0,0.0,73,0.00,,,0.00,WUHU21623XXSP,2013-07-17 03:27:00,
2013-07-16 22:32:00,73.9,65.2,30.06,NNW,337,0.0,0.0,74,0.00,,,0.00,WUHU21623XXSP,2013-07-17 03:32:00,
2013-07-16 22:37:00,73.9,65.2,30.07,NNW,337,0.0,0.0,74,0.00,,,0.00,WUHU21623XXSP,2013-07-17 03:37:00,
2013-07-16 22:42:00,73.8,65.0,30.06,NNW,337,0.0,0.0,74,0.00,,,0.00,WUHU21623XXSP,2013-07-17 03:42:00,
2013-07-16 22:47:00,73.2,64.8,30.06,NNW,337,0.0,0.0,75,0.00,,,0.00,WUHU21623XXSP,2013-07-17 03:47:00,
2013-07-16 22:52:00,73.2,65.6,30.06,NNW,337,0.0,1.3,77,0.00,,,0.00,WUHU21623XXSP,2013-07-17 03:52:00,
2013-07-16 22:57:00,73.4,65.8,30.06,NNW,337,0.0,1.3,77,0.00,,,0.00,WUHU21623XXSP,2013-07-17 03:57:00,
2013-07-16 23:01:00,73.8,65.8,30.06,NNW,337,0.0,0.0,76,0.00,,,0.00,WUHU21623XXSP,2013-07-17 04:01:00,
2013-07-16 23:06:00,73.6,65.6,30.06,NNW,337,0.0,0.0,76,0.00,,,0.00,WUHU21623XXSP,2013-07-17 04:06:00,
2013-07-16 23:11:00,72.7,65.1,30.06,NNW,337,0.0,0.7,77,0.00,,,0.00,WUHU21623XXSP,2013-07-17 04:11:00,
2013-07-16 23:16:00,72.1,65.3,30.06,NNW,337,0.0,0.7,79,0.00,,,0.00,WUHU21623XXSP,2013-07-17 04:16:00,
2013-07-16 23:21:00,72.3,65.5,30.06,NNW,337,0.0,0.0,79,0.00,,,0.00,WUHU21623XXSP,2013-07-17 04:21:00,
2013-07-16 23:26:00,72.3,65.1,30.06,NNW,337,0.0,0.0,78,0.00,,,0.00,WUHU21623XXSP,2013-07-17 04:26:00,
2013-07-16 23:31:00,72.5,65.7,30.07,NNW,337,0.0,0.0,79,0.00,,,0.00,WUHU21623XXSP,2013-07-17 04:31:00,
2013-07-16 23:36:00,72.3,65.5,30.07,NNW,337,0.0,0.0,79,0.00,,,0.00,WUHU21623XXSP,2013-07-17 04:36:00,
2013-07-16 23:41:00,72.1,65.3,30.07,NNW,337,0.0,0.0,79,0.00,,,0.00,WUHU21623XXSP,2013-07-17 04:41:00,
2013-07-16 23:46:00,71.8,65.3,30.07,NNW,337,0.0,0.0,80,0.00,,,0.00,WUHU21623XXSP,2013-07-17 04:46:00,
2013-07-16 23:51:00,71.2,65.1,30.07,NNW,337,0.0,0.0,81,0.00,,,0.00,WUHU21623XXSP,2013-07-17 04:51:00,
2013-07-16 23:55:00,71.2,65.1,30.07,NNW,337,0.0,0.0,81,0.00,,,0.00,WUHU21623XXSP,2013-07-17 04:55:00,
2013-07-16 23:59:00,70.7,64.7,30.07,North,0,0.0,0.0,81,0.00,,,0.00,WUHU21623XXSP,2013-07-17 04:59:00,